UAL2468 KCLE-KEWR

Flight info

Callsign UAL2468
Flight time 1h 5m
Altitude 27000
Route PFLYD1 DORET J584 SLT FQM3
Aircraft B38M/M-SDE1FGHILORVWXY/HB1

Departure

Time 2026-05-05 13:23
Airport Cleveland Hopkins International Airport (KCLE)

Arrival

Time 2026-05-05 14:28
Airport Newark Liberty International Airport (KEWR)
Time Latitude Longitude Altitude Speed Heading
2026-05-05 12:55 41.40942 -81.84026 786 ft 0 kts 141°
2026-05-05 13:07 41.40944 -81.84028 777 ft 3 kts 140°
2026-05-05 13:07 41.40960 -81.84046 807 ft 4 kts 139°
2026-05-05 13:07 41.40981 -81.84070 807 ft 4 kts 138°
2026-05-05 13:07 41.41001 -81.84094 807 ft 4 kts 141°
2026-05-05 13:08 41.41023 -81.84113 807 ft 4 kts 164°
2026-05-05 13:08 41.41039 -81.84113 805 ft 1 kts 219°
2026-05-05 13:08 41.41043 -81.84110 805 ft 0 kts 219°
2026-05-05 13:10 41.41043 -81.84109 805 ft 0 kts 219°
2026-05-05 13:17 41.41036 -81.84118 807 ft 4 kts 221°
2026-05-05 13:17 41.41011 -81.84165 807 ft 7 kts 255°
2026-05-05 13:17 41.41009 -81.84233 807 ft 7 kts 278°
2026-05-05 13:18 41.41025 -81.84295 806 ft 7 kts 299°
2026-05-05 13:18 41.41049 -81.84353 805 ft 7 kts 296°
2026-05-05 13:18 41.41074 -81.84417 805 ft 8 kts 300°
2026-05-05 13:18 41.41116 -81.84484 806 ft 11 kts 316°
2026-05-05 13:19 41.41190 -81.84510 808 ft 13 kts 17°
2026-05-05 13:19 41.41263 -81.84520 807 ft 14 kts 327°
2026-05-05 13:21 41.41285 -81.84540 807 ft 15 kts 325°
2026-05-05 13:21 41.41370 -81.84632 807 ft 16 kts 320°
2026-05-05 13:21 41.41456 -81.84724 807 ft 16 kts 322°
2026-05-05 13:21 41.41539 -81.84816 806 ft 10 kts 315°
2026-05-05 13:22 41.41546 -81.84884 804 ft 0 kts 235°
2026-05-05 13:22 41.41541 -81.84892 804 ft 11 kts 232°
2026-05-05 13:22 41.41337 -81.85215 806 ft 79 kts 230°
2026-05-05 13:22 41.40851 -81.85983 807 ft 135 kts 231°
2026-05-05 13:23 41.40422 -81.86660 1014 ft 150 kts 229°
2026-05-05 13:23 41.39690 -81.87754 1503 ft 167 kts 230°
2026-05-05 13:23 41.39057 -81.89084 2107 ft 174 kts 250°
2026-05-05 13:23 41.38822 -81.91176 2983 ft 179 kts 267°
2026-05-05 13:24 41.39056 -81.92933 3223 ft 207 kts 278°
2026-05-05 13:24 41.39376 -81.94923 3528 ft 230 kts 277°
2026-05-05 13:24 41.39585 -81.96360 3923 ft 236 kts 277°
2026-05-05 13:24 41.39877 -81.98533 4654 ft 239 kts 276°
2026-05-05 13:25 41.40175 -82.00751 5239 ft 249 kts 277°
2026-05-05 13:25 41.40483 -82.03037 5873 ft 249 kts 276°
2026-05-05 13:25 41.40782 -82.05311 6007 ft 250 kts 276°
2026-05-05 13:25 41.41077 -82.07606 6044 ft 253 kts 276°
2026-05-05 13:26 41.41421 -82.09906 6066 ft 257 kts 284°
2026-05-05 13:26 41.42390 -82.11973 6520 ft 271 kts 308°
2026-05-05 13:26 41.43875 -82.13479 7398 ft 277 kts 327°
2026-05-05 13:26 41.45748 -82.14231 8186 ft 290 kts 349°
2026-05-05 13:27 41.47785 -82.13900 8952 ft 305 kts 16°
2026-05-05 13:27 41.49632 -82.12438 9687 ft 316 kts 38°
2026-05-05 13:27 41.51192 -82.10339 10389 ft 324 kts 45°
2026-05-05 13:27 41.52722 -82.07976 10601 ft 349 kts 47°
2026-05-05 13:28 41.54330 -82.05429 10869 ft 368 kts 47°
2026-05-05 13:28 41.56013 -82.02791 11435 ft 377 kts 47°
2026-05-05 13:28 41.57742 -82.00141 12171 ft 380 kts 46°
2026-05-05 13:28 41.59509 -81.97481 12913 ft 385 kts 45°
2026-05-05 13:29 41.61261 -81.94749 13649 ft 392 kts 53°
2026-05-05 13:29 41.62408 -81.91428 14310 ft 398 kts 76°
2026-05-05 13:29 41.62752 -81.87756 15069 ft 400 kts 88°
2026-05-05 13:29 41.62911 -81.84025 15766 ft 405 kts 88°
2026-05-05 13:30 41.63084 -81.80244 16425 ft 410 kts 87°
2026-05-05 13:30 41.63286 -81.76412 17114 ft 415 kts 87°
2026-05-05 13:30 41.63506 -81.72537 17803 ft 420 kts 86°
2026-05-05 13:30 41.63728 -81.68628 18424 ft 424 kts 86°
2026-05-05 13:31 41.63952 -81.64676 19008 ft 428 kts 86°
2026-05-05 13:31 41.64176 -81.60689 19639 ft 431 kts 86°
2026-05-05 13:31 41.64398 -81.56675 20232 ft 435 kts 86°
2026-05-05 13:31 41.64628 -81.52625 20817 ft 439 kts 84°
2026-05-05 13:32 41.65089 -81.48568 21361 ft 443 kts 77°
2026-05-05 13:32 41.65759 -81.44545 21934 ft 446 kts 75°
2026-05-05 13:32 41.66507 -81.40502 22493 ft 449 kts 74°
2026-05-05 13:32 41.67271 -81.36423 23017 ft 455 kts 74°
2026-05-05 13:33 41.68023 -81.32297 23500 ft 459 kts 75°
2026-05-05 13:33 41.68757 -81.28125 23951 ft 462 kts 75°
2026-05-05 13:33 41.69475 -81.23929 24438 ft 464 kts 76°
2026-05-05 13:33 41.70184 -81.19705 24891 ft 467 kts 76°
2026-05-05 13:34 41.70892 -81.15447 25312 ft 470 kts 76°
2026-05-05 13:34 41.71591 -81.11215 25732 ft 474 kts 76°
2026-05-05 13:34 41.72303 -81.06905 26180 ft 476 kts 76°
2026-05-05 13:34 41.73017 -81.02574 26692 ft 476 kts 76°
2026-05-05 13:35 41.73734 -80.98220 26761 ft 482 kts 76°
2026-05-05 13:35 41.74452 -80.93853 26767 ft 478 kts 76°
2026-05-05 13:35 41.75161 -80.89529 26763 ft 473 kts 77°
2026-05-05 13:35 41.75863 -80.85245 26774 ft 471 kts 77°
2026-05-05 13:36 41.76564 -80.80947 26789 ft 473 kts 77°
2026-05-05 13:36 41.77265 -80.76642 26781 ft 474 kts 77°
2026-05-05 13:36 41.77965 -80.72332 26783 ft 474 kts 77°
2026-05-05 13:36 41.78666 -80.68012 26783 ft 475 kts 77°
2026-05-05 13:37 41.79367 -80.63680 26778 ft 475 kts 77°
2026-05-05 13:37 41.79895 -80.59321 26759 ft 475 kts 85°
2026-05-05 13:37 41.79943 -80.54904 26772 ft 474 kts 96°
2026-05-05 13:37 41.79545 -80.50531 26776 ft 472 kts 100°
2026-05-05 13:38 41.79077 -80.46185 26775 ft 471 kts 100°
2026-05-05 13:38 41.78600 -80.41853 26779 ft 470 kts 100°
2026-05-05 13:38 41.78129 -80.37518 26784 ft 469 kts 100°
2026-05-05 13:38 41.77671 -80.33202 26797 ft 468 kts 100°
2026-05-05 13:39 41.77221 -80.28883 26792 ft 468 kts 99°
2026-05-05 13:39 41.76777 -80.24563 26806 ft 468 kts 99°
2026-05-05 13:39 41.76335 -80.20242 26807 ft 469 kts 99°
2026-05-05 13:39 41.75898 -80.15971 26788 ft 469 kts 100°
2026-05-05 13:40 41.75454 -80.11642 26788 ft 469 kts 100°
2026-05-05 13:40 41.75008 -80.07318 26793 ft 468 kts 100°
2026-05-05 13:40 41.74561 -80.03006 26803 ft 468 kts 100°
2026-05-05 13:40 41.74112 -79.98690 26791 ft 468 kts 100°
2026-05-05 13:41 41.73660 -79.94374 26802 ft 468 kts 100°
2026-05-05 13:41 41.73207 -79.90058 26797 ft 468 kts 100°
2026-05-05 13:41 41.72753 -79.85744 26796 ft 468 kts 100°
2026-05-05 13:41 41.72297 -79.81431 26803 ft 468 kts 100°
2026-05-05 13:42 41.71839 -79.77116 26790 ft 468 kts 101°
2026-05-05 13:42 41.71380 -79.72806 26797 ft 467 kts 101°
2026-05-05 13:42 41.70920 -79.68501 26797 ft 467 kts 101°
2026-05-05 13:42 41.70458 -79.64201 26799 ft 467 kts 101°
2026-05-05 13:43 41.69996 -79.59902 26796 ft 466 kts 101°
2026-05-05 13:43 41.69532 -79.55611 26798 ft 466 kts 101°
2026-05-05 13:43 41.69067 -79.51322 26800 ft 466 kts 101°
2026-05-05 13:43 41.68601 -79.47034 26811 ft 465 kts 101°
2026-05-05 13:44 41.68133 -79.42753 26800 ft 465 kts 101°
2026-05-05 13:44 41.67664 -79.38477 26801 ft 465 kts 101°
2026-05-05 13:44 41.67194 -79.34201 26810 ft 464 kts 101°
2026-05-05 13:44 41.66724 -79.29932 26811 ft 464 kts 101°
2026-05-05 13:45 41.66251 -79.25659 26807 ft 464 kts 101°
2026-05-05 13:45 41.65777 -79.21393 26810 ft 464 kts 101°
2026-05-05 13:45 41.65303 -79.17132 26813 ft 464 kts 101°
2026-05-05 13:45 41.64827 -79.12868 26824 ft 464 kts 101°
2026-05-05 13:46 41.64349 -79.08598 26829 ft 465 kts 101°
2026-05-05 13:46 41.63876 -79.04378 26797 ft 465 kts 101°
2026-05-05 13:46 41.63395 -79.00106 26805 ft 465 kts 101°
2026-05-05 13:46 41.62913 -78.95834 26819 ft 464 kts 101°
2026-05-05 13:47 41.62431 -78.91574 26838 ft 464 kts 101°
2026-05-05 13:47 41.61947 -78.87312 26818 ft 464 kts 101°
2026-05-05 13:47 41.61461 -78.83050 26826 ft 464 kts 101°
2026-05-05 13:47 41.60974 -78.78790 26818 ft 464 kts 101°
2026-05-05 13:48 41.60485 -78.74533 26823 ft 464 kts 101°
2026-05-05 13:48 41.59994 -78.70268 26830 ft 463 kts 101°
2026-05-05 13:48 41.59503 -78.66018 26834 ft 463 kts 101°
2026-05-05 13:48 41.59009 -78.61756 26822 ft 463 kts 101°
2026-05-05 13:49 41.58515 -78.57509 26825 ft 463 kts 101°
2026-05-05 13:49 41.58020 -78.53268 26825 ft 462 kts 101°
2026-05-05 13:49 41.57523 -78.49025 26838 ft 462 kts 101°
2026-05-05 13:49 41.57026 -78.44789 26830 ft 462 kts 101°
2026-05-05 13:50 41.56526 -78.40549 26824 ft 462 kts 102°
2026-05-05 13:50 41.56027 -78.36320 26826 ft 461 kts 101°
2026-05-05 13:50 41.55533 -78.32151 26841 ft 461 kts 102°
2026-05-05 13:50 41.55029 -78.27928 26835 ft 461 kts 102°
2026-05-05 13:51 41.54523 -78.23700 26835 ft 461 kts 101°
2026-05-05 13:51 41.54016 -78.19470 26828 ft 462 kts 102°
2026-05-05 13:51 41.53508 -78.15237 26832 ft 462 kts 102°
2026-05-05 13:51 41.52998 -78.11001 26832 ft 462 kts 102°
2026-05-05 13:52 41.52486 -78.06762 26828 ft 462 kts 102°
2026-05-05 13:52 41.51972 -78.02522 26830 ft 462 kts 102°
2026-05-05 13:52 41.51457 -77.98289 26846 ft 462 kts 102°
2026-05-05 13:52 41.50923 -77.94057 26812 ft 462 kts 102°
2026-05-05 13:53 41.50342 -77.89849 26828 ft 461 kts 103°
2026-05-05 13:53 41.49739 -77.85654 26833 ft 460 kts 103°
2026-05-05 13:53 41.49132 -77.81469 26814 ft 460 kts 103°
2026-05-05 13:53 41.48525 -77.77289 26848 ft 459 kts 103°
2026-05-05 13:54 41.47921 -77.73111 26835 ft 458 kts 103°
2026-05-05 13:54 41.47321 -77.68941 26841 ft 458 kts 103°
2026-05-05 13:54 41.46722 -77.64769 26850 ft 458 kts 103°
2026-05-05 13:54 41.46131 -77.60645 26851 ft 458 kts 103°
2026-05-05 13:55 41.45532 -77.56474 26831 ft 458 kts 102°
2026-05-05 13:55 41.44929 -77.52304 26832 ft 458 kts 102°
2026-05-05 13:55 41.44325 -77.48134 26845 ft 458 kts 102°
2026-05-05 13:55 41.43719 -77.43956 26847 ft 459 kts 102°
2026-05-05 13:56 41.43112 -77.39786 26851 ft 459 kts 102°
2026-05-05 13:56 41.42502 -77.35610 26845 ft 459 kts 103°
2026-05-05 13:56 41.41891 -77.31429 26843 ft 459 kts 103°
2026-05-05 13:56 41.41280 -77.27265 26853 ft 458 kts 102°
2026-05-05 13:57 41.40667 -77.23095 26856 ft 458 kts 103°
2026-05-05 13:57 41.40053 -77.18936 26847 ft 458 kts 102°
2026-05-05 13:57 41.39439 -77.14779 26853 ft 456 kts 102°
2026-05-05 13:57 41.38834 -77.10693 26857 ft 456 kts 102°
2026-05-05 13:58 41.38220 -77.06563 26856 ft 455 kts 102°
2026-05-05 13:58 41.37605 -77.02435 26855 ft 454 kts 102°
2026-05-05 13:58 41.36989 -76.98310 26865 ft 454 kts 102°
2026-05-05 13:58 41.36373 -76.94194 26862 ft 454 kts 102°
2026-05-05 13:59 41.35137 -76.85966 26855 ft 453 kts 102°
2026-05-05 13:59 41.34517 -76.81858 26862 ft 452 kts 102°
2026-05-05 14:00 41.33074 -76.73720 26864 ft 451 kts 110°
2026-05-05 14:00 41.32403 -76.71118 26872 ft 446 kts 111°
2026-05-05 14:00 41.30967 -76.66024 26505 ft 435 kts 112°
2026-05-05 14:00 41.29895 -76.62290 26105 ft 430 kts 112°
2026-05-05 14:01 41.28847 -76.58579 25651 ft 427 kts 112°
2026-05-05 14:01 41.27827 -76.54887 25210 ft 424 kts 112°
2026-05-05 14:01 41.26829 -76.51217 24753 ft 421 kts 112°
2026-05-05 14:01 41.25844 -76.47564 24299 ft 419 kts 111°
2026-05-05 14:02 41.24867 -76.43932 23838 ft 417 kts 112°
2026-05-05 14:02 41.23905 -76.40360 23369 ft 415 kts 112°
2026-05-05 14:02 41.22934 -76.36758 22857 ft 412 kts 112°
2026-05-05 14:02 41.21969 -76.33184 22381 ft 409 kts 112°
2026-05-05 14:03 41.21009 -76.29639 21923 ft 406 kts 112°
2026-05-05 14:03 41.20056 -76.26122 21492 ft 403 kts 112°
2026-05-05 14:03 41.19110 -76.22638 21059 ft 400 kts 112°
2026-05-05 14:03 41.18167 -76.19173 20626 ft 397 kts 113°
2026-05-05 14:04 41.17230 -76.15737 20207 ft 395 kts 113°
2026-05-05 14:04 41.16299 -76.12323 19781 ft 392 kts 113°
2026-05-05 14:04 41.15372 -76.08930 19366 ft 390 kts 113°
2026-05-05 14:04 41.14448 -76.05553 18957 ft 388 kts 113°
2026-05-05 14:05 41.13527 -76.02194 18551 ft 388 kts 113°
2026-05-05 14:05 41.12604 -75.98832 18123 ft 388 kts 114°
2026-05-05 14:05 41.11679 -75.95469 17670 ft 387 kts 114°
2026-05-05 14:05 41.10759 -75.92126 17232 ft 385 kts 114°
2026-05-05 14:06 41.09845 -75.88808 16803 ft 382 kts 114°
2026-05-05 14:06 41.08936 -75.85511 16402 ft 380 kts 114°
2026-05-05 14:06 41.08031 -75.82234 15992 ft 378 kts 115°
2026-05-05 14:06 41.07130 -75.78976 15594 ft 376 kts 115°
2026-05-05 14:07 41.06231 -75.75731 15197 ft 375 kts 115°
2026-05-05 14:07 41.05333 -75.72491 14805 ft 375 kts 115°
2026-05-05 14:07 41.04446 -75.69300 14435 ft 374 kts 115°
2026-05-05 14:07 41.03550 -75.66072 14036 ft 372 kts 115°
2026-05-05 14:08 41.02656 -75.62859 13633 ft 371 kts 115°
2026-05-05 14:08 41.01765 -75.59660 13202 ft 369 kts 115°
2026-05-05 14:08 41.00882 -75.56495 12831 ft 364 kts 116°
2026-05-05 14:08 41.00011 -75.53375 12548 ft 358 kts 116°
2026-05-05 14:09 40.99155 -75.50308 12256 ft 353 kts 116°
2026-05-05 14:09 40.98310 -75.47285 11988 ft 349 kts 116°
2026-05-05 14:09 40.97466 -75.44278 11727 ft 349 kts 116°
2026-05-05 14:09 40.96621 -75.41271 11449 ft 349 kts 116°
2026-05-05 14:10 40.95775 -75.38262 11182 ft 348 kts 116°
2026-05-05 14:10 40.94932 -75.35266 10906 ft 346 kts 116°
2026-05-05 14:10 40.94102 -75.32311 10626 ft 340 kts 116°
2026-05-05 14:10 40.93286 -75.29409 10372 ft 334 kts 116°
2026-05-05 14:11 40.92480 -75.26549 10120 ft 329 kts 116°
2026-05-05 14:11 40.91686 -75.23736 9932 ft 322 kts 116°
2026-05-05 14:11 40.90920 -75.21020 9916 ft 309 kts 117°
2026-05-05 14:11 40.90185 -75.18414 9695 ft 302 kts 117°
2026-05-05 14:12 40.89445 -75.15818 9204 ft 303 kts 116°
2026-05-05 14:12 40.88711 -75.13230 8883 ft 297 kts 116°
2026-05-05 14:12 40.87989 -75.10681 8641 ft 289 kts 116°
2026-05-05 14:12 40.87300 -75.08245 8424 ft 286 kts 116°
2026-05-05 14:13 40.86599 -75.05769 8187 ft 290 kts 116°
2026-05-05 14:13 40.85889 -75.03260 7964 ft 292 kts 116°
2026-05-05 14:13 40.85176 -75.00732 7743 ft 294 kts 116°
2026-05-05 14:13 40.84464 -74.98212 7503 ft 291 kts 116°
2026-05-05 14:14 40.83760 -74.95722 7268 ft 288 kts 116°
2026-05-05 14:14 40.83062 -74.93260 7038 ft 284 kts 116°
2026-05-05 14:14 40.82519 -74.90765 6873 ft 284 kts 96°
2026-05-05 14:14 40.82708 -74.88197 6801 ft 280 kts 81°
2026-05-05 14:15 40.83093 -74.85688 6702 ft 279 kts 80°
2026-05-05 14:15 40.83508 -74.83168 6593 ft 282 kts 80°
2026-05-05 14:15 40.83786 -74.81486 6527 ft 283 kts 79°
2026-05-05 14:15 40.84204 -74.78938 6416 ft 285 kts 80°
2026-05-05 14:16 40.84621 -74.76373 6301 ft 286 kts 80°
2026-05-05 14:16 40.85031 -74.73827 6172 ft 282 kts 80°
2026-05-05 14:16 40.85435 -74.71302 6049 ft 279 kts 80°
2026-05-05 14:16 40.85832 -74.68790 5962 ft 280 kts 80°
2026-05-05 14:17 40.86229 -74.66267 5850 ft 280 kts 80°
2026-05-05 14:17 40.86624 -74.63751 5735 ft 280 kts 80°
2026-05-05 14:17 40.87019 -74.61226 5632 ft 281 kts 80°
2026-05-05 14:17 40.87414 -74.58696 5511 ft 281 kts 80°
2026-05-05 14:18 40.87807 -74.56184 5400 ft 279 kts 80°
2026-05-05 14:18 40.88197 -74.53673 5318 ft 279 kts 80°
2026-05-05 14:18 40.88586 -74.51162 5199 ft 280 kts 79°
2026-05-05 14:18 40.88977 -74.48641 5067 ft 279 kts 79°
2026-05-05 14:19 40.89366 -74.46130 4995 ft 279 kts 79°
2026-05-05 14:19 40.89754 -74.43613 4864 ft 280 kts 79°
2026-05-05 14:19 40.90142 -74.41106 4756 ft 276 kts 79°
2026-05-05 14:19 40.90520 -74.38642 4629 ft 270 kts 79°
2026-05-05 14:20 40.90891 -74.36240 4519 ft 263 kts 79°
2026-05-05 14:20 40.91249 -74.33905 4410 ft 255 kts 80°
2026-05-05 14:20 40.91600 -74.31631 4316 ft 250 kts 79°
2026-05-05 14:20 40.91947 -74.29383 4230 ft 250 kts 79°
2026-05-05 14:21 40.92292 -74.27119 4146 ft 252 kts 79°
2026-05-05 14:21 40.92640 -74.24847 4054 ft 253 kts 79°
2026-05-05 14:21 40.92988 -74.22564 3961 ft 253 kts 79°
2026-05-05 14:21 40.93335 -74.20270 3849 ft 256 kts 79°
2026-05-05 14:22 40.93680 -74.17956 3737 ft 256 kts 83°
2026-05-05 14:22 40.93514 -74.15719 3601 ft 243 kts 119°
2026-05-05 14:22 40.92540 -74.14034 3542 ft 223 kts 144°
2026-05-05 14:22 40.91326 -74.12917 3490 ft 208 kts 159°
2026-05-05 14:23 40.90055 -74.11991 3425 ft 209 kts 159°
2026-05-05 14:23 40.88782 -74.11063 3360 ft 209 kts 159°
2026-05-05 14:23 40.87505 -74.10126 3226 ft 210 kts 158°
2026-05-05 14:23 40.86235 -74.09184 3139 ft 208 kts 158°
2026-05-05 14:24 40.85010 -74.08270 3057 ft 198 kts 158°
2026-05-05 14:24 40.83762 -74.07593 2889 ft 187 kts 184°
2026-05-05 14:24 40.82629 -74.07980 2753 ft 161 kts 213°
2026-05-05 14:24 40.81616 -74.08611 2546 ft 160 kts 212°
2026-05-05 14:25 40.80605 -74.09238 2334 ft 159 kts 213°
2026-05-05 14:25 40.79609 -74.09867 2130 ft 159 kts 212°
2026-05-05 14:25 40.78613 -74.10504 1888 ft 159 kts 212°
2026-05-05 14:25 40.77628 -74.11131 1725 ft 151 kts 211°
2026-05-05 14:26 40.76708 -74.11713 1498 ft 142 kts 212°
2026-05-05 14:26 40.75814 -74.12288 1317 ft 148 kts 212°
2026-05-05 14:26 40.74882 -74.12887 1158 ft 151 kts 210°
2026-05-05 14:26 40.73947 -74.13482 961 ft 148 kts 207°
2026-05-05 14:27 40.73038 -74.14049 706 ft 142 kts 208°
2026-05-05 14:27 40.72158 -74.14617 468 ft 140 kts 206°
2026-05-05 14:27 40.71290 -74.15160 286 ft 137 kts 207°
2026-05-05 14:27 40.70407 -74.15731 108 ft 144 kts 209°
2026-05-05 14:28 40.69525 -74.16298 22 ft 131 kts 205°
2026-05-05 14:28 40.68862 -74.16719 21 ft 76 kts 205°
2026-05-05 14:28 40.68593 -74.16901 21 ft 16 kts 221°
2026-05-05 14:28 40.68524 -74.17016 21 ft 15 kts 234°
2026-05-05 14:29 40.68464 -74.17126 22 ft 14 kts 234°
2026-05-05 14:29 40.68449 -74.17152 22 ft 1 kts 234°
2026-05-05 14:29 40.68444 -74.17162 24 ft 2 kts 234°
2026-05-05 14:29 40.68436 -74.17181 22 ft 1 kts 246°
2026-05-05 14:30 40.68434 -74.17186 22 ft 1 kts 249°
2026-05-05 14:30 40.68433 -74.17191 24 ft 0 kts 248°
2026-05-05 14:30 40.68433 -74.17192 24 ft 0 kts 248°
2026-05-05 14:30 40.68433 -74.17201 22 ft 3 kts 277°
2026-05-05 14:31 40.68448 -74.17248 22 ft 8 kts 292°
2026-05-05 14:31 40.68479 -74.17347 24 ft 15 kts 298°
2026-05-05 14:31 40.68531 -74.17448 22 ft 15 kts 330°
2026-05-05 14:31 40.68605 -74.17430 22 ft 11 kts 24°
2026-05-05 14:32 40.68681 -74.17383 22 ft 11 kts 25°
2026-05-05 14:32 40.68748 -74.17342 22 ft 10 kts 25°
2026-05-05 14:32 40.68772 -74.17327 22 ft 0 kts 25°
2026-05-05 14:32 40.68773 -74.17327 22 ft 0 kts 20°
2026-05-05 14:33 40.68774 -74.17327 22 ft 0 kts
2026-05-05 14:33 40.68777 -74.17330 22 ft 1 kts 334°
2026-05-05 14:33 40.68788 -74.17352 21 ft 5 kts 304°
2026-05-05 14:33 40.68807 -74.17395 21 ft 6 kts 297°
2026-05-05 14:34 40.68824 -74.17442 21 ft 6 kts 295°
2026-05-05 14:34 40.68841 -74.17489 21 ft 6 kts 295°
2026-05-05 14:34 40.68857 -74.17534 21 ft 5 kts 295°
2026-05-05 14:34 40.68873 -74.17579 21 ft 5 kts 295°
2026-05-05 14:35 40.68889 -74.17623 21 ft 5 kts 297°
2026-05-05 14:35 40.68907 -74.17665 21 ft 5 kts 308°
2026-05-05 14:35 40.68934 -74.17685 21 ft 3 kts 357°
2026-05-05 14:35 40.68955 -74.17679 21 ft 3 kts 17°
2026-05-05 14:36 40.68973 -74.17665 23 ft 3 kts 28°
2026-05-05 14:36 40.68980 -74.17643 21 ft 3 kts 97°
2026-05-05 14:36 40.68979 -74.17641 21 ft 0 kts 107°
2026-05-05 14:36 40.68978 -74.17636 21 ft 1 kts 106°
2026-05-05 14:37 40.68977 -74.17630 21 ft 0 kts 105°
2026-05-05 14:37 40.68976 -74.17628 21 ft 0 kts 106°